,,Stat6,,Stat2,,Stat8,,Stat9,,Stat10,,Wind1,,Wind1,
time,status,PA1M_AVG,status,PR1M_SUM,status,RH1M_AVG,status,SR1M_AVG,status,TA1M_AVG,status,W1dAve1m,status,W1sAve1m,
2007-12-08, 00:00:00,VALID,915.924,VALID,0,VALID,100,VALID,-0.0169808,VALID,19.9486,VALID,152,VALID,0.982897,
2007-12-08, 00:01:00,VALID,915.918,VALID,0,VALID,100,VALID,-0.0849042,VALID,19.9357,VALID,138,VALID,0.842115,
2007-12-08, 00:02:00,VALID,915.902,VALID,0,VALID,100,VALID,-0.0339617,VALID,19.9197,VALID,149,VALID,0.978277,
2007-12-08, 00:03:00,VALID,915.894,VALID,0,VALID,100,VALID,-0.0679233,VALID,19.9065,VALID,159,VALID,0.938953,
2007-12-08, 00:04:00,VALID,915.875,VALID,0,VALID,100,VALID,-0.0679233,VALID,19.9327,VALID,154,VALID,1.08798,
2007-12-08, 00:05:00,VALID,915.867,VALID,0,VALID,100,VALID,-0.0679233,VALID,19.9489,VALID,158,VALID,1.03622,
2007-12-08, 00:06:00,VALID,915.867,VALID,0,VALID,100,VALID,0,VALID,19.9584,VALID,144,VALID,0.12309,
2007-12-08, 00:07:00,VALID,915.868,VALID,0,VALID,100,VALID,-0.0169808,VALID,19.9649,VALID,160,VALID,1.05687,
2007-12-08, 00:08:00,VALID,915.873,VALID,0,VALID,100,VALID,-0.0679233,VALID,19.9913,VALID,158,VALID,0.743278,
2007-12-08, 00:09:00,VALID,915.875,VALID,0,VALID,100,VALID,0,VALID,19.9749,VALID,166,VALID,1.05114,
2007-12-08, 00:10:00,VALID,915.866,VALID,0,VALID,100,VALID,-0.0509425,VALID,19.9684,VALID,161,VALID,0.799293,
2007-12-08, 00:11:00,VALID,915.852,VALID,0,VALID,100,VALID,-0.0339617,VALID,19.9486,VALID,170,VALID,0.0844494,
2007-12-08, 00:12:00,VALID,915.819,VALID,0,VALID,100,VALID,-0.0339617,VALID,19.9551,VALID,143,VALID,0.902798,
2007-12-08, 00:13:00,VALID,915.798,VALID,0,VALID,100,VALID,-0.0339617,VALID,19.9611,VALID,139,VALID,0.686481,
2007-12-08, 00:14:00,VALID,915.756,VALID,0,VALID,100,VALID,-0.0339617,VALID,20.0073,VALID,143,VALID,1.4008,
2007-12-08, 00:15:00,VALID,915.718,VALID,0,VALID,100,VALID,0,VALID,20.023,VALID,135,VALID,1.28089,
2007-12-08, 00:16:00,VALID,915.698,VALID,0,VALID,100,VALID,-0.0169808,VALID,20.0495,VALID,129,VALID,1.21418,
2007-12-08, 00:17:00,VALID,915.685,VALID,0,VALID,100,VALID,-0.0339617,VALID,20.0397,VALID,135,VALID,1.40347,
2007-12-08, 00:18:00,VALID,915.68,VALID,0,VALID,100,VALID,-0.0169808,VALID,20.0328,VALID,143,VALID,0.947461,
2007-12-08, 00:19:00,VALID,915.675,VALID,0,VALID,100,VALID,-0.0169808,VALID,20.0392,VALID,135,VALID,1.04967,
2007-12-08, 00:20:00,VALID,915.685,VALID,0,VALID,100,VALID,-0.0339617,VALID,20.059,VALID,130,VALID,1.01823,
2007-12-08, 00:21:00,VALID,915.688,VALID,0,VALID,100,VALID,-0.0849042,VALID,20.062,VALID,133,VALID,0.916667,
2007-12-08, 00:22:00,VALID,915.701,VALID,0,VALID,100,VALID,-0.0849042,VALID,20.0722,VALID,140,VALID,0.907885,
2007-12-08, 00:23:00,VALID,915.701,VALID,0,VALID,100,VALID,-0.0169808,VALID,20.0757,VALID,142,VALID,0.776105,
2007-12-08, 00:24:00,VALID,915.705,VALID,0,VALID,100,VALID,0,VALID,20.0779,VALID,162,VALID,0.740734,
2007-12-08, 00:25:00,VALID,915.702,VALID,0,VALID,100,VALID,-0.0169808,VALID,20.0887,VALID,180,VALID,0.872024,
2007-12-08, 00:26:00,VALID,915.693,VALID,0,VALID,100,VALID,-0.0169808,VALID,20.0587,VALID,182,VALID,1.05124,
2007-12-08, 00:27:00,VALID,915.692,VALID,0,VALID,100,VALID,-0.0169808,VALID,20.0522,VALID,186,VALID,1.12571,
2007-12-08, 00:28:00,VALID,915.675,VALID,0,VALID,100,VALID,-0.0849042,VALID,20.0333,VALID,162,VALID,0.953869,
2007-12-08, 00:29:00,VALID,915.68,VALID,0,VALID,100,VALID,0,VALID,20.0098,VALID,189,VALID,0.774653,
2007-12-08, 00:30:00,VALID,915.692,VALID,0,VALID,100,VALID,-0.0169808,VALID,20.007,VALID,170,VALID,0.796875,
2007-12-08, 00:31:00,VALID,915.709,VALID,0,VALID,100,VALID,-0.0339617,VALID,19.9938,VALID,147,VALID,0.460405,
2007-12-08, 00:32:00,VALID,915.717,VALID,0,VALID,100,VALID,-0.0169808,VALID,19.9933,VALID,157,VALID,0.0730378,
2007-12-08, 00:33:00,VALID,915.723,VALID,0,VALID,100,VALID,-0.0169808,VALID,20.0287,VALID,165,VALID,0.74814,
2007-12-08, 00:34:00,VALID,915.741,VALID,0,VALID,100,VALID,-0.0169808,VALID,20.0587,VALID,119,VALID,0.588086,
2007-12-08, 00:35:00,VALID,915.745,VALID,0,VALID,100,VALID,-0.0169808,VALID,20.0585,VALID,119,VALID,0.0535974,
2007-12-08, 00:36:00,VALID,915.75,VALID,0,VALID,100,VALID,-0.0509425,VALID,20.0455,VALID,113,VALID,0.00142045,
2007-12-08, 00:37:00,VALID,915.749,VALID,0,VALID,100,VALID,-0.0339617,VALID,20.059,VALID,95,VALID,0.178544,
2007-12-08, 00:38:00,VALID,915.756,VALID,0,VALID,100,VALID,-0.0339617,VALID,20.0582,VALID,94,VALID,0,
2007-12-08, 00:39:00,VALID,915.751,VALID,0,VALID,100,VALID,-0.0169808,VALID,20.0552,VALID,95,VALID,0,
2007-12-08, 00:40:00,VALID,915.746,VALID,0,VALID,100,VALID,-0.0679233,VALID,20.0592,VALID,106,VALID,0,
2007-12-08, 00:41:00,VALID,915.744,VALID,0,VALID,100,VALID,-0.0169808,VALID,20.0427,VALID,102,VALID,0,
2007-12-08, 00:42:00,VALID,915.736,VALID,0,VALID,100,VALID,-0.0339617,VALID,20.033,VALID,84,VALID,0.254192,
2007-12-08, 00:43:00,VALID,915.713,VALID,0,VALID,100,VALID,-0.0339617,VALID,20.0225,VALID,108,VALID,0.968936,
2007-12-08, 00:44:00,VALID,915.701,VALID,0,VALID,100,VALID,-0.0169808,VALID,20.029,VALID,115,VALID,0.973772,
2007-12-08, 00:45:00,VALID,915.695,VALID,0,VALID,100,VALID,-0.0169808,VALID,20.0158,VALID,113,VALID,0.985069,
2007-12-08, 00:46:00,VALID,915.689,VALID,0,VALID,100,VALID,-0.0169808,VALID,20.013,VALID,124,VALID,0.910792,
2007-12-08, 00:47:00,VALID,915.672,VALID,0,VALID,100,VALID,0,VALID,19.9998,VALID,109,VALID,0.619391,
2007-12-08, 00:48:00,VALID,915.664,VALID,0,VALID,100,VALID,0,VALID,19.9963,VALID,111,VALID,0.651563,
2007-12-08, 00:49:00,VALID,915.653,VALID,0,VALID,100,VALID,-0.0169808,VALID,19.9906,VALID,99,VALID,0.683408,
2007-12-08, 00:50:00,VALID,915.648,VALID,0,VALID,100,VALID,-0.0339617,VALID,19.9876,VALID,106,VALID,0.479611,
2007-12-08, 00:51:00,VALID,915.635,VALID,0,VALID,100,VALID,-0.0509425,VALID,19.9843,VALID,101,VALID,0.619368,
2007-12-08, 00:52:00,VALID,915.615,VALID,0,VALID,100,VALID,-0.0339617,VALID,19.9868,VALID,97,VALID,0.707667,
2007-12-08, 00:53:00,VALID,915.606,VALID,0,VALID,100,VALID,-0.0169808,VALID,19.9903,VALID,122,VALID,1.15547,
2007-12-08, 00:54:00,VALID,915.596,VALID,0,VALID,100,VALID,0,VALID,20.0258,VALID,118,VALID,1.09757,
2007-12-08, 00:55:00,VALID,915.585,VALID,0,VALID,100,VALID,-0.0169808,VALID,20.0679,VALID,123,VALID,1.58665,
2007-12-08, 00:56:00,VALID,915.565,VALID,0,VALID,100,VALID,-0.0169808,VALID,20.0844,VALID,113,VALID,1.26786,
2007-12-08, 00:57:00,VALID,915.566,VALID,0,VALID,100,VALID,0,VALID,20.0872,VALID,98,VALID,1.33733,
2007-12-08, 00:58:00,VALID,915.539,VALID,0,VALID,100,VALID,0,VALID,20.0747,VALID,112,VALID,1.18223,
2007-12-08, 00:59:00,VALID,915.543,VALID,0,VALID,100,VALID,-0.0339617,VALID,20.0882,VALID,110,VALID,1.15513,
2007-12-08, 01:00:00,VALID,915.531,VALID,0,VALID,100,VALID,-0.0339617,VALID,20.0879,VALID,111,VALID,0.933507,
2007-12-08, 01:01:00,VALID,915.521,VALID,0,VALID,100,VALID,-0.0169808,VALID,20.0939,VALID,113,VALID,0.96657,
2007-12-08, 01:02:00,VALID,915.538,VALID,0,VALID,100,VALID,-0.0169808,VALID,20.1139,VALID,100,VALID,1.06658,
2007-12-08, 01:03:00,VALID,915.552,VALID,0,VALID,100,VALID,0,VALID,20.1363,VALID,123,VALID,1.35538,
2007-12-08, 01:04:00,VALID,915.567,VALID,0,VALID,100,VALID,-0.0339617,VALID,20.1588,VALID,124,VALID,1.29924,
2007-12-08, 01:05:00,VALID,915.568,VALID,0,VALID,100,VALID,0,VALID,20.1888,VALID,111,VALID,1.12427,
2007-12-08, 01:06:00,VALID,915.567,VALID,0,VALID,100,VALID,-0.0169808,VALID,20.182,VALID,128,VALID,0.805778,
2007-12-08, 01:07:00,VALID,915.578,VALID,0,VALID,100,VALID,-0.0509425,VALID,20.212,VALID,123,VALID,1.25365,
2007-12-08, 01:08:00,VALID,915.552,VALID,0,VALID,100,VALID,0,VALID,20.2175,VALID,130,VALID,1.38681,
2007-12-08, 01:09:00,VALID,915.549,VALID,0,VALID,100,VALID,-0.0339617,VALID,20.2277,VALID,131,VALID,1.31339,
2007-12-08, 01:10:00,VALID,915.545,VALID,0,VALID,100,VALID,-0.0169808,VALID,20.221,VALID,145,VALID,1.36452,
2007-12-08, 01:11:00,VALID,915.546,VALID,0,VALID,100,VALID,-0.0169808,VALID,20.2404,VALID,145,VALID,1.42496,
2007-12-08, 01:12:00,VALID,915.544,VALID,0,VALID,100,VALID,-0.0509425,VALID,20.2444,VALID,140,VALID,0.811384,
2007-12-08, 01:13:00,VALID,915.533,VALID,0,VALID,100,VALID,-0.0339617,VALID,20.2142,VALID,127,VALID,0.770712,
2007-12-08, 01:14:00,VALID,915.534,VALID,0,VALID,100,VALID,-0.0509425,VALID,20.2177,VALID,109,VALID,0.0124628,
2007-12-08, 01:15:00,VALID,915.518,VALID,0,VALID,100,VALID,-0.0339617,VALID,20.2147,VALID,119,VALID,0.727095,
2007-12-08, 01:16:00,VALID,915.512,VALID,0,VALID,100,VALID,-0.0339617,VALID,20.215,VALID,108,VALID,0.554861,
2007-12-08, 01:17:00,VALID,915.502,VALID,0,VALID,100,VALID,-0.0679233,VALID,20.2015,VALID,99,VALID,0.361285,
2007-12-08, 01:18:00,VALID,915.499,VALID,0,VALID,100,VALID,-0.0169808,VALID,20.208,VALID,100,VALID,0.367932,
2007-12-08, 01:19:00,VALID,915.484,VALID,0,VALID,100,VALID,-0.0509425,VALID,20.218,VALID,69,VALID,0.00228659,
2007-12-08, 01:20:00,VALID,915.468,VALID,0,VALID,100,VALID,-0.0169808,VALID,20.218,VALID,69,VALID,0.0481771,
2007-12-08, 01:21:00,VALID,915.467,VALID,0,VALID,100,VALID,-0.0339617,VALID,20.2215,VALID,96,VALID,0.269141,
2007-12-08, 01:22:00,VALID,915.447,VALID,0,VALID,100,VALID,-0.0679233,VALID,20.212,VALID,102,VALID,0.731517,
2007-12-08, 01:23:00,VALID,915.418,VALID,0,VALID,100,VALID,-0.0339617,VALID,20.2247,VALID,115,VALID,1.44866,
2007-12-08, 01:24:00,VALID,915.418,VALID,0,VALID,100,VALID,-0.0169808,VALID,20.214,VALID,115,VALID,0.886083,
2007-12-08, 01:25:00,VALID,915.416,VALID,0,VALID,100,VALID,-0.0339617,VALID,20.2309,VALID,110,VALID,0.952734,
2007-12-08, 01:26:00,VALID,915.412,VALID,0,VALID,100,VALID,-0.0169808,VALID,20.2339,VALID,117,VALID,0.466332,
2007-12-08, 01:27:00,VALID,915.422,VALID,0,VALID,100,VALID,-0.0339617,VALID,20.2239,VALID,118,VALID,0.313033,
2007-12-08, 01:28:00,VALID,915.41,VALID,0,VALID,100,VALID,-0.0169808,VALID,20.2307,VALID,115,VALID,0.364139,
2007-12-08, 01:29:00,VALID,915.414,VALID,0,VALID,100,VALID,-0.0169808,VALID,20.2374,VALID,127,VALID,0.435352,
2007-12-08, 01:30:00,VALID,915.397,VALID,0,VALID,100,VALID,-0.0509425,VALID,20.2274,VALID,128,VALID,0.628993,
2007-12-08, 01:31:00,VALID,915.401,VALID,0,VALID,100,VALID,-0.0339617,VALID,20.2277,VALID,143,VALID,0.96968,
2007-12-08, 01:32:00,VALID,915.4,VALID,0,VALID,100,VALID,-0.0339617,VALID,20.2344,VALID,145,VALID,0.900484,
2007-12-08, 01:33:00,VALID,915.388,VALID,0,VALID,100,VALID,-0.0679233,VALID,20.2315,VALID,138,VALID,0.767531,
2007-12-08, 01:34:00,VALID,915.382,VALID,0,VALID,100,VALID,-0.0679233,VALID,20.2407,VALID,141,VALID,0.472098,
2007-12-08, 01:35:00,VALID,915.385,VALID,0,VALID,100,VALID,-0.0169808,VALID,20.2307,VALID,149,VALID,0.196094,
2007-12-08, 01:36:00,VALID,915.369,VALID,0,VALID,100,VALID,0,VALID,20.2239,VALID,146,VALID,0,
2007-12-08, 01:37:00,VALID,915.361,VALID,0,VALID,100,VALID,-0.0169808,VALID,20.2204,VALID,146,VALID,0,
2007-12-08, 01:38:00,VALID,915.356,VALID,0,VALID,100,VALID,0,VALID,20.2202,VALID,146,VALID,0,
2007-12-08, 01:39:00,VALID,915.344,VALID,0,VALID,100,VALID,0,VALID,20.2204,VALID,146,VALID,0,
2007-12-08, 01:40:00,VALID,915.343,VALID,0,VALID,100,VALID,0.0169808,VALID,20.1942,VALID,146,VALID,0,
2007-12-08, 01:41:00,VALID,915.324,VALID,0,VALID,100,VALID,0,VALID,20.1583,VALID,147,VALID,0,
2007-12-08, 01:42:00,VALID,915.329,VALID,0,VALID,100,VALID,-0.0509425,VALID,20.1241,VALID,147,VALID,0,
2007-12-08, 01:43:00,VALID,915.313,VALID,0,VALID,100,VALID,-0.118866,VALID,20.0757,VALID,147,VALID,0,
2007-12-08, 01:44:00,VALID,915.319,VALID,0,VALID,100,VALID,-0.118866,VALID,20.0497,VALID,147,VALID,0,
2007-12-08, 01:45:00,VALID,915.298,VALID,0,VALID,100,VALID,-0.0849042,VALID,20.0592,VALID,147,VALID,0,
2007-12-08, 01:46:00,VALID,915.276,VALID,0,VALID,100,VALID,-0.0849042,VALID,20.0627,VALID,147,VALID,0,
2007-12-08, 01:47:00,VALID,915.275,VALID,0,VALID,100,VALID,-0.101885,VALID,20.063,VALID,146,VALID,0,
2007-12-08, 01:48:00,VALID,915.255,VALID,0,VALID,100,VALID,-0.101885,VALID,20.05,VALID,146,VALID,0,
2007-12-08, 01:49:00,VALID,915.236,VALID,0,VALID,100,VALID,-0.0679233,VALID,20.0432,VALID,146,VALID,0.0994318,
2007-12-08, 01:50:00,VALID,915.227,VALID,0,VALID,100,VALID,-0.101885,VALID,20.0268,VALID,150,VALID,0,
2007-12-08, 01:51:00,VALID,915.215,VALID,0,VALID,100,VALID,-0.101885,VALID,20.0205,VALID,153,VALID,0,
2007-12-08, 01:52:00,VALID,915.216,VALID,0,VALID,100,VALID,-0.118866,VALID,20.0076,VALID,153,VALID,0,
2007-12-08, 01:53:00,VALID,915.205,VALID,0,VALID,100,VALID,-0.118866,VALID,20.0046,VALID,153,VALID,0.456214,
2007-12-08, 01:54:00,VALID,915.205,VALID,0,VALID,100,VALID,-0.0509425,VALID,19.9946,VALID,150,VALID,0.71076,
2007-12-08, 01:55:00,VALID,915.208,VALID,0,VALID,100,VALID,-0.101885,VALID,19.9946,VALID,145,VALID,0.923295,
2007-12-08, 01:56:00,VALID,915.201,VALID,0,VALID,100,VALID,-0.118866,VALID,20.0078,VALID,146,VALID,1.00999,
2007-12-08, 01:57:00,VALID,915.213,VALID,0,VALID,100,VALID,-0.101885,VALID,20.0243,VALID,149,VALID,1.1942,
2007-12-08, 01:58:00,VALID,915.212,VALID,0,VALID,100,VALID,-0.101885,VALID,20.034,VALID,157,VALID,0.914825,
2007-12-08, 01:59:00,VALID,915.217,VALID,0,VALID,100,VALID,-0.118866,VALID,20.0243,VALID,146,VALID,0.810594,
2007-12-08, 02:00:00,VALID,915.228,VALID,0,VALID,100,VALID,-0.152827,VALID,20.0438,VALID,147,VALID,0.454241,
2007-12-08, 02:01:00,VALID,915.21,VALID,0,VALID,100,VALID,-0.101885,VALID,20.0467,VALID,140,VALID,0.638849,
2007-12-08, 02:02:00,VALID,915.222,VALID,0.2,VALID,100,VALID,-0.101885,VALID,20.05,VALID,150,VALID,0.710136,
2007-12-08, 02:03:00,VALID,915.218,VALID,0,VALID,100,VALID,-0.118866,VALID,20.0597,VALID,154,VALID,0.897104,
2007-12-08, 02:04:00,VALID,915.216,VALID,0,VALID,100,VALID,-0.0849042,VALID,20.066,VALID,156,VALID,0.702762,
2007-12-08, 02:05:00,VALID,915.222,VALID,0,VALID,100,VALID,-0.0849042,VALID,20.0792,VALID,151,VALID,0.580543,
2007-12-08, 02:06:00,VALID,915.212,VALID,0,VALID,100,VALID,-0.101885,VALID,20.0857,VALID,167,VALID,0.419017,
2007-12-08, 02:07:00,VALID,915.198,VALID,0,VALID,100,VALID,-0.101885,VALID,20.0922,VALID,172,VALID,0.354297,
2007-12-08, 02:08:00,VALID,915.195,VALID,0,VALID,100,VALID,-0.101885,VALID,20.0887,VALID,144,VALID,0.0241477,
2007-12-08, 02:09:00,VALID,915.191,VALID,0,VALID,100,VALID,-0.101885,VALID,20.0819,VALID,138,VALID,0,
2007-12-08, 02:10:00,VALID,915.182,VALID,0,VALID,100,VALID,-0.0679233,VALID,20.0919,VALID,137,VALID,0,
2007-12-08, 02:11:00,VALID,915.2,VALID,0,VALID,100,VALID,-0.0849042,VALID,20.0987,VALID,131,VALID,0,
2007-12-08, 02:12:00,VALID,915.218,VALID,0,VALID,100,VALID,0,VALID,20.0907,VALID,131,VALID,0,
2007-12-08, 02:13:00,VALID,915.212,VALID,0.2,VALID,100,VALID,0,VALID,20.0872,VALID,134,VALID,0.615141,
2007-12-08, 02:14:00,VALID,915.216,VALID,0,VALID,100,VALID,0,VALID,20.1006,VALID,141,VALID,0.548921,
2007-12-08, 02:15:00,VALID,915.205,VALID,0,VALID,100,VALID,0.0169808,VALID,20.1101,VALID,140,VALID,0.600361,
2007-12-08, 02:16:00,VALID,915.202,VALID,0,VALID,100,VALID,0,VALID,20.1199,VALID,143,VALID,0.616815,
2007-12-08, 02:17:00,VALID,915.185,VALID,0,VALID,100,VALID,-0.0339617,VALID,20.1339,VALID,124,VALID,0.318266,
2007-12-08, 02:18:00,VALID,915.164,VALID,0,VALID,100,VALID,0,VALID,20.1261,VALID,138,VALID,0.439862,
2007-12-08, 02:19:00,VALID,915.148,VALID,0,VALID,100,VALID,0,VALID,20.1333,VALID,165,VALID,0.480655,
2007-12-08, 02:20:00,VALID,915.131,VALID,0,VALID,100,VALID,-0.0169808,VALID,20.1431,VALID,151,VALID,0.5125,
2007-12-08, 02:21:00,VALID,915.118,VALID,0,VALID,100,VALID,0,VALID,20.1396,VALID,163,VALID,0.529948,
2007-12-08, 02:22:00,VALID,915.094,VALID,0,VALID,100,VALID,0,VALID,20.152,VALID,172,VALID,0.709604,
2007-12-08, 02:23:00,VALID,915.079,VALID,0,VALID,100,VALID,0,VALID,20.1555,VALID,166,VALID,0.501453,
2007-12-08, 02:24:00,VALID,915.058,VALID,0.2,VALID,100,VALID,-0.0339617,VALID,20.1688,VALID,151,VALID,0.0644985,
2007-12-08, 02:25:00,VALID,915.043,VALID,0,VALID,100,VALID,-0.0169808,VALID,20.1755,VALID,145,VALID,0.0530134,
2007-12-08, 02:26:00,VALID,915.024,VALID,0,VALID,100,VALID,0,VALID,20.152,VALID,142,VALID,0.208734,
2007-12-08, 02:27:00,VALID,915.013,VALID,0,VALID,100,VALID,-0.0849042,VALID,20.1409,VALID,135,VALID,0.157099,
2007-12-08, 02:28:00,VALID,914.982,VALID,0,VALID,100,VALID,-0.101885,VALID,20.1211,VALID,138,VALID,0,
2007-12-08, 02:29:00,VALID,914.948,VALID,0,VALID,100,VALID,-0.118866,VALID,20.1151,VALID,146,VALID,0,
2007-12-08, 02:30:00,VALID,914.939,VALID,0,VALID,100,VALID,-0.101885,VALID,20.1211,VALID,167,VALID,0,
2007-12-08, 02:31:00,VALID,914.91,VALID,0,VALID,100,VALID,-0.118866,VALID,20.1379,VALID,170,VALID,0.0985863,
2007-12-08, 02:32:00,VALID,914.879,VALID,0,VALID,100,VALID,-0.101885,VALID,20.1438,VALID,159,VALID,0.368278,
2007-12-08, 02:33:00,VALID,914.864,VALID,0.2,VALID,100,VALID,-0.118866,VALID,20.1409,VALID,159,VALID,0.619792,
2007-12-08, 02:34:00,VALID,914.855,VALID,0,VALID,100,VALID,-0.101885,VALID,20.1376,VALID,158,VALID,0.789426,
2007-12-08, 02:35:00,VALID,914.83,VALID,0,VALID,100,VALID,-0.135847,VALID,20.1344,VALID,151,VALID,0.398793,
2007-12-08, 02:36:00,VALID,914.823,VALID,0,VALID,100,VALID,-0.101885,VALID,20.1344,VALID,146,VALID,0.41061,
2007-12-08, 02:37:00,VALID,914.78,VALID,0,VALID,100,VALID,-0.0849042,VALID,20.1244,VALID,140,VALID,0.566964,
2007-12-08, 02:38:00,VALID,914.769,VALID,0,VALID,100,VALID,-0.118866,VALID,20.1244,VALID,144,VALID,0.696948,
2007-12-08, 02:39:00,VALID,914.737,VALID,0,VALID,100,VALID,-0.101885,VALID,20.1179,VALID,139,VALID,0.691692,
2007-12-08, 02:40:00,VALID,914.713,VALID,0.2,VALID,100,VALID,-0.101885,VALID,20.1244,VALID,145,VALID,0.715661,
2007-12-08, 02:41:00,VALID,914.699,VALID,0,VALID,100,VALID,-0.0679233,VALID,20.1146,VALID,143,VALID,0.664426,
2007-12-08, 02:42:00,VALID,914.66,VALID,0,VALID,100,VALID,-0.0169808,VALID,20.1331,VALID,158,VALID,1.09427,
2007-12-08, 02:43:00,VALID,914.625,VALID,0,VALID,100,VALID,-0.0169808,VALID,20.1393,VALID,169,VALID,0.634993,
2007-12-08, 02:44:00,VALID,914.598,VALID,0,VALID,100,VALID,-0.0169808,VALID,20.1498,VALID,166,VALID,0.60103,
2007-12-08, 02:45:00,VALID,914.581,VALID,0,VALID,100,VALID,-0.0169808,VALID,20.1498,VALID,166,VALID,0.765825,
2007-12-08, 02:46:00,VALID,914.559,VALID,0,VALID,100,VALID,0,VALID,20.1458,VALID,164,VALID,0.833394,
2007-12-08, 02:47:00,VALID,914.538,VALID,0,VALID,100,VALID,0,VALID,20.1458,VALID,157,VALID,0.967862,
2007-12-08, 02:48:00,VALID,914.526,VALID,0,VALID,100,VALID,0,VALID,20.1463,VALID,171,VALID,0.746951,
2007-12-08, 02:49:00,VALID,914.522,VALID,0,VALID,100,VALID,-0.0169808,VALID,20.1426,VALID,158,VALID,0.683203,
2007-12-08, 02:50:00,VALID,914.506,VALID,0.2,VALID,100,VALID,-0.0169808,VALID,20.1393,VALID,152,VALID,0.80785,
2007-12-08, 02:51:00,VALID,914.5,VALID,0,VALID,100,VALID,0,VALID,20.1231,VALID,149,VALID,0.777902,
2007-12-08, 02:52:00,VALID,914.496,VALID,0,VALID,100,VALID,-0.0169808,VALID,20.1071,VALID,149,VALID,0.990091,
2007-12-08, 02:53:00,VALID,914.493,VALID,0,VALID,100,VALID,-0.0169808,VALID,20.0944,VALID,151,VALID,0.70258,
2007-12-08, 02:54:00,VALID,914.509,VALID,0,VALID,100,VALID,0,VALID,20.0714,VALID,152,VALID,0.0661458,
2007-12-08, 02:55:00,VALID,914.515,VALID,0,VALID,100,VALID,-0.0339617,VALID,20.0487,VALID,141,VALID,0.186719,
2007-12-08, 02:56:00,VALID,914.49,VALID,0,VALID,100,VALID,0,VALID,20.042,VALID,143,VALID,0.181504,
2007-12-08, 02:57:00,VALID,914.496,VALID,0,VALID,100,VALID,0,VALID,20.0355,VALID,148,VALID,0.100694,
2007-12-08, 02:58:00,VALID,914.487,VALID,0,VALID,100,VALID,-0.0169808,VALID,20.0255,VALID,149,VALID,0.0985577,
2007-12-08, 02:59:00,VALID,914.48,VALID,0.2,VALID,100,VALID,-0.0169808,VALID,20.0293,VALID,150,VALID,0,
2007-12-08, 03:00:00,VALID,914.485,VALID,0,VALID,100,VALID,0,VALID,20.0392,VALID,150,VALID,0,
2007-12-08, 03:01:00,VALID,914.474,VALID,0,VALID,100,VALID,-0.0169808,VALID,20.0452,VALID,150,VALID,0,
2007-12-08, 03:02:00,VALID,914.459,VALID,0,VALID,100,VALID,-0.0509425,VALID,20.0492,VALID,150,VALID,0,
2007-12-08, 03:03:00,VALID,914.449,VALID,0,VALID,100,VALID,-0.0339617,VALID,20.069,VALID,150,VALID,0,
2007-12-08, 03:04:00,VALID,914.436,VALID,0.2,VALID,100,VALID,-0.0339617,VALID,20.0647,VALID,150,VALID,0,
2007-12-08, 03:05:00,VALID,914.425,VALID,0,VALID,100,VALID,-0.0169808,VALID,20.0552,VALID,150,VALID,0,
2007-12-08, 03:06:00,VALID,914.433,VALID,0,VALID,100,VALID,-0.0169808,VALID,20.0644,VALID,150,VALID,0,
2007-12-08, 03:07:00,VALID,914.412,VALID,0,VALID,100,VALID,-0.0169808,VALID,20.0649,VALID,150,VALID,0,
2007-12-08, 03:08:00,VALID,914.429,VALID,0,VALID,100,VALID,-0.0339617,VALID,20.0517,VALID,150,VALID,0,
2007-12-08, 03:09:00,VALID,914.41,VALID,0.2,VALID,100,VALID,-0.0509425,VALID,20.0492,VALID,150,VALID,0,
2007-12-08, 03:10:00,VALID,914.399,VALID,0,VALID,100,VALID,-0.0169808,VALID,20.0422,VALID,150,VALID,0,
2007-12-08, 03:11:00,VALID,914.379,VALID,0,VALID,100,VALID,-0.0509425,VALID,20.0263,VALID,150,VALID,0,
2007-12-08, 03:12:00,VALID,914.375,VALID,0,VALID,100,VALID,-0.0339617,VALID,20.0163,VALID,150,VALID,0,
2007-12-08, 03:13:00,VALID,914.352,VALID,0,VALID,100,VALID,-0.0679233,VALID,20.0165,VALID,150,VALID,0,
2007-12-08, 03:14:00,VALID,914.349,VALID,0.2,VALID,100,VALID,-0.0339617,VALID,20.0165,VALID,150,VALID,0,
2007-12-08, 03:15:00,VALID,914.326,VALID,0,VALID,100,VALID,-0.0169808,VALID,19.9966,VALID,150,VALID,0,
2007-12-08, 03:16:00,VALID,914.321,VALID,0,VALID,100,VALID,-0.0169808,VALID,19.9781,VALID,150,VALID,0,
2007-12-08, 03:17:00,VALID,914.304,VALID,0,VALID,100,VALID,-0.0339617,VALID,19.9486,VALID,150,VALID,0,
2007-12-08, 03:18:00,VALID,914.294,VALID,0,VALID,100,VALID,-0.0509425,VALID,19.9354,VALID,150,VALID,0,
2007-12-08, 03:19:00,VALID,914.286,VALID,0,VALID,100,VALID,-0.0509425,VALID,19.9327,VALID,150,VALID,0,
2007-12-08, 03:20:00,VALID,914.275,VALID,0,VALID,100,VALID,-0.0509425,VALID,19.9259,VALID,150,VALID,0,
2007-12-08, 03:21:00,VALID,914.269,VALID,0,VALID,100,VALID,-0.0339617,VALID,19.9154,VALID,150,VALID,0,
2007-12-08, 03:22:00,VALID,914.266,VALID,0,VALID,100,VALID,-0.0169808,VALID,19.9389,VALID,150,VALID,0,
2007-12-08, 03:23:00,VALID,914.253,VALID,0.2,VALID,100,VALID,0,VALID,19.9317,VALID,150,VALID,0,
2007-12-08, 03:24:00,VALID,914.247,VALID,0,VALID,100,VALID,0.0169808,VALID,19.9379,VALID,150,VALID,0,
2007-12-08, 03:25:00,VALID,914.237,VALID,0,VALID,100,VALID,-0.0169808,VALID,19.9444,VALID,150,VALID,0,
2007-12-08, 03:26:00,VALID,914.236,VALID,0,VALID,100,VALID,0,VALID,19.9282,VALID,144,VALID,0,
2007-12-08, 03:27:00,VALID,914.237,VALID,0,VALID,100,VALID,-0.0339617,VALID,19.9154,VALID,142,VALID,0,
2007-12-08, 03:28:00,VALID,914.225,VALID,0,VALID,100,VALID,0,VALID,19.8992,VALID,120,VALID,0,
2007-12-08, 03:29:00,VALID,914.22,VALID,0,VALID,100,VALID,-0.0169808,VALID,19.8835,VALID,68,VALID,0,
2007-12-08, 03:30:00,VALID,914.217,VALID,0,VALID,100,VALID,-0.0339617,VALID,19.867,VALID,68,VALID,0,
2007-12-08, 03:31:00,VALID,914.202,VALID,0,VALID,100,VALID,0,VALID,19.864,VALID,62,VALID,0,
2007-12-08, 03:32:00,VALID,914.186,VALID,0,VALID,100,VALID,-0.0169808,VALID,19.8476,VALID,58,VALID,0,
2007-12-08, 03:33:00,VALID,914.178,VALID,0,VALID,100,VALID,-0.0169808,VALID,19.8513,VALID,58,VALID,0.0438179,
2007-12-08, 03:34:00,VALID,914.185,VALID,0.2,VALID,100,VALID,0,VALID,19.8376,VALID,52,VALID,0,
2007-12-08, 03:35:00,VALID,914.158,VALID,0,VALID,100,VALID,0,VALID,19.8411,VALID,40,VALID,0,
2007-12-08, 03:36:00,VALID,914.134,VALID,0,VALID,100,VALID,-0.0169808,VALID,19.8181,VALID,40,VALID,0,
2007-12-08, 03:37:00,VALID,914.11,VALID,0,VALID,100,VALID,0,VALID,19.8016,VALID,40,VALID,0,
2007-12-08, 03:38:00,VALID,914.093,VALID,0,VALID,100,VALID,-0.0509425,VALID,19.7929,VALID,40,VALID,0,
2007-12-08, 03:39:00,VALID,914.078,VALID,0,VALID,100,VALID,-0.0169808,VALID,19.7961,VALID,40,VALID,0,
2007-12-08, 03:40:00,VALID,914.081,VALID,0,VALID,100,VALID,-0.0339617,VALID,19.7792,VALID,40,VALID,0,
2007-12-08, 03:41:00,VALID,914.062,VALID,0,VALID,100,VALID,-0.0339617,VALID,19.7797,VALID,40,VALID,0,
2007-12-08, 03:42:00,VALID,914.055,VALID,0,VALID,100,VALID,-0.0509425,VALID,19.7632,VALID,40,VALID,0,